Location: Willingham
(52.3167°N, 0.0667°E)
Time: 20:05:39
(UTC+00:00)

USA 229 - Pass Details

Date: 19 May 2025
Orbit: 872 x 1339 km, 63.4° (Epoch: 20 June)

Event Time Altitude Azimuth Distance (km) Brightness Sun altitude
Exits shadow 23:20:50 28° 172° (S) 1,718 4.2 -17.3°
Maximum altitude 23:23:36 43° 121° (ESE) 1,352 4.0 -17.3°
Drops below altitude 10° 23:29:54 10° 52° (NE) 2,895 6.4 -17.5°
Sets 23:32:49 0° 47° (NE) 3,930 7.2 -17.5°
